Preview of NWS' New Version of Forecast
This preview is not operational and should not be used for support decisions.

Regional Weather Roundup (RWR)

Issued by National Weather Service (NWS)

                            
000
ASPQ40 PGUM 190310
RWRPQ 
WEATHER ROUNDUP FOR THE MARIANAS AND MICRONESIA
NATIONAL WEATHER SERVICE TIYAN GU
100 PM CHST WED JUN 19 2019

GUZ001>004-190400-
MARIANA ISLANDS-
  
CITY           SKY/WX    TMP DP  RH WIND       PRES   REMARKS
GUAM AIRPORT   MOSUNNY   88  73  62 SE12      29.83F HX  96           
ANDERSEN AFB   MOSUNNY   88  73  62 E13       29.84F HX  96           
ROTA AIRPORT   MOSUNNY   86  72  62 E18       29.82F HX  92           
TINIAN AP      MOSUNNY   88  73  62 E16       29.82F HX  96           
SAIPAN AP      MOSUNNY   88  75  66 SE15      29.83F HX  97           

$$

PMZ161-190400-
REPUBLIC OF PALAU-
  
CITY           SKY/WX    TMP DP  RH WIND       PRES   REMARKS
KOROR AP       PTSUNNY   88  75  66 NE9       29.78F HX  97           
KOROR WSO      NOT AVBL                                               

$$

PMZ171>174-190400-
FEDERATED STATES OF MICRONESIA-
  
CITY           SKY/WX    TMP DP  RH WIND       PRES   REMARKS
YAP AIRPORT    MOSUNNY   91  81  70 E9        29.76F HX 110           
CHUUK AP       CLOUDY    84  81  89 VRB3      29.79F HX  98           
POHNPEI AP     CLOUDY    88  77  70 SE6       29.79F HX 100           
POHNPEI WSO    PTSUNNY   84  75  74 E5        29.81F HX  92           
KOSRAE AP      NOT AVBL                                               

$$

PMZ181-190400-
REPUBLIC OF THE MARSHALL ISLANDS-
  
CITY           SKY/WX    TMP DP  RH WIND       PRES   REMARKS
KWAJALEIN AP   MOSUNNY   88  77  70 E12       29.78F HX 100           
MAJURO AP      PTSUNNY   86  77  74 NE18      29.76S HX  97           
MAJURO WSO     CLOUDY    82  77  83 E15       29.75S HX  91           

$$